Time,TemperatureF,DewpointF,PressureIn,WindDirection,WindDirectionDegrees,WindSpeedMPH,WindSpeedGustMPH,Humidity,HourlyPrecipIn,Conditions,Clouds,dailyrainin,SoftwareType,DateUTC
2013-06-09 00:14:00,69.0,67.0,32.27,NNE,13,0.0,-999.0,93,-99.99,,,0.00,weatherlink.com 1.10,2013-06-09 04:14:00,
2013-06-09 00:29:00,69.0,67.0,32.27,NNE,13,0.0,-999.0,94,-99.99,,,0.00,weatherlink.com 1.10,2013-06-09 04:29:00,
2013-06-09 00:44:00,69.0,67.0,32.27,NNE,13,0.0,-999.0,94,-99.99,,,0.00,weatherlink.com 1.10,2013-06-09 04:44:00,
2013-06-09 00:59:00,68.9,67.0,32.27,NNE,13,0.0,-999.0,94,-99.99,,,0.00,weatherlink.com 1.10,2013-06-09 04:59:00,
2013-06-09 01:14:00,69.0,68.0,32.27,NNE,13,0.0,-999.0,95,-99.99,,,0.00,weatherlink.com 1.10,2013-06-09 05:14:00,
2013-06-09 01:29:00,68.9,68.0,32.27,NNE,13,0.0,-999.0,95,-99.99,,,0.00,weatherlink.com 1.10,2013-06-09 05:29:00,
2013-06-09 01:44:00,68.8,67.0,32.27,NNE,13,0.0,-999.0,95,-99.99,,,0.00,weatherlink.com 1.10,2013-06-09 05:44:00,
2013-06-09 01:59:00,68.9,68.0,32.27,NNE,13,0.0,-999.0,95,-99.99,,,0.00,weatherlink.com 1.10,2013-06-09 05:59:00,
2013-06-09 02:14:00,69.0,68.0,32.27,NNE,13,0.0,-999.0,95,-99.99,,,0.00,weatherlink.com 1.10,2013-06-09 06:14:00,
2013-06-09 02:29:00,69.4,68.0,32.27,NNE,13,0.0,-999.0,95,-99.99,,,0.00,weatherlink.com 1.10,2013-06-09 06:29:00,
2013-06-09 02:44:00,69.5,68.0,32.27,NNE,13,0.0,-999.0,95,-99.99,,,0.00,weatherlink.com 1.10,2013-06-09 06:44:00,
2013-06-09 02:59:00,69.6,68.0,32.27,NNE,13,0.0,-999.0,94,-99.99,,,0.00,weatherlink.com 1.10,2013-06-09 06:59:00,
2013-06-09 03:14:00,69.4,67.0,32.27,NNE,13,0.0,-999.0,93,-99.99,,,0.00,weatherlink.com 1.10,2013-06-09 07:14:00,
2013-06-09 03:29:00,68.7,65.0,32.27,SSE,155,0.0,-999.0,88,-99.99,,,0.00,weatherlink.com 1.10,2013-06-09 07:29:00,
2013-06-09 03:44:00,68.7,65.0,32.27,SSE,155,0.0,-999.0,87,-99.99,,,0.00,weatherlink.com 1.10,2013-06-09 07:44:00,
2013-06-09 03:59:00,68.5,65.0,32.27,SSE,155,0.0,-999.0,87,-99.99,,,0.00,weatherlink.com 1.10,2013-06-09 07:59:00,
2013-06-09 04:14:00,68.1,65.0,32.27,SSE,155,0.0,-999.0,88,-99.99,,,0.00,weatherlink.com 1.10,2013-06-09 08:14:00,
2013-06-09 04:29:00,67.5,64.0,32.27,SSE,155,0.0,-999.0,87,-99.99,,,0.00,weatherlink.com 1.10,2013-06-09 08:29:00,
2013-06-09 04:44:00,67.3,63.0,32.27,SSE,155,0.0,-999.0,87,-99.99,,,0.00,weatherlink.com 1.10,2013-06-09 08:44:00,
2013-06-09 04:59:00,67.1,63.0,32.27,SSE,155,1.0,-999.0,87,-99.99,,,0.00,weatherlink.com 1.10,2013-06-09 08:59:00,
2013-06-09 05:14:00,66.9,63.0,32.27,WNW,286,0.0,-999.0,88,-99.99,,,0.00,weatherlink.com 1.10,2013-06-09 09:14:00,
2013-06-09 05:29:00,66.6,63.0,32.27,WNW,286,0.0,-999.0,88,-99.99,,,0.00,weatherlink.com 1.10,2013-06-09 09:29:00,
2013-06-09 05:45:00,66.1,63.0,32.27,WNW,286,0.0,-999.0,89,-99.99,,,0.00,weatherlink.com 1.10,2013-06-09 09:45:00,
2013-06-09 06:00:00,65.6,63.0,32.27,East,94,0.0,-999.0,90,-99.99,,,0.00,weatherlink.com 1.10,2013-06-09 10:00:00,
2013-06-09 06:15:00,65.6,63.0,32.27,East,94,0.0,-999.0,91,-99.99,,,0.00,weatherlink.com 1.10,2013-06-09 10:15:00,
2013-06-09 06:30:00,65.6,63.0,32.27,East,94,0.0,-999.0,92,-99.99,,,0.00,weatherlink.com 1.10,2013-06-09 10:30:00,
2013-06-09 06:45:00,65.9,64.0,32.27,ENE,68,0.0,-999.0,92,-99.99,,,0.00,weatherlink.com 1.10,2013-06-09 10:45:00,
2013-06-09 07:00:00,66.5,65.0,32.27,SE,125,0.0,-999.0,93,-99.99,,,0.00,weatherlink.com 1.10,2013-06-09 11:00:00,
2013-06-09 07:15:00,67.2,65.0,32.27,SSE,153,0.0,-999.0,91,-99.99,,,0.00,weatherlink.com 1.10,2013-06-09 11:15:00,
2013-06-09 07:30:00,68.3,65.0,32.27,WSW,243,0.0,-999.0,90,-99.99,,,0.00,weatherlink.com 1.10,2013-06-09 11:30:00,
2013-06-09 07:45:00,69.4,66.0,32.27,SSE,163,0.0,-999.0,88,-99.99,,,0.00,weatherlink.com 1.10,2013-06-09 11:45:00,
2013-06-09 08:00:00,70.3,66.0,32.27,SSE,163,0.0,-999.0,87,-99.99,,,0.00,weatherlink.com 1.10,2013-06-09 12:00:00,
2013-06-09 08:15:00,70.9,67.0,32.27,SSE,163,0.0,-999.0,86,-99.99,,,0.00,weatherlink.com 1.10,2013-06-09 12:15:00,
2013-06-09 08:30:00,71.4,66.0,32.27,ENE,78,0.0,-999.0,84,-99.99,,,0.00,weatherlink.com 1.10,2013-06-09 12:30:00,
2013-06-09 08:45:00,73.0,67.0,32.27,ESE,106,0.0,-999.0,82,-99.99,,,0.00,weatherlink.com 1.10,2013-06-09 12:45:00,
2013-06-09 09:00:00,74.0,67.0,32.27,ESE,115,1.0,-999.0,78,-99.99,,,0.00,weatherlink.com 1.10,2013-06-09 13:00:00,
2013-06-09 09:15:00,75.1,68.0,32.27,East,82,2.0,-999.0,79,-99.99,,,0.00,weatherlink.com 1.10,2013-06-09 13:15:00,
2013-06-09 09:30:00,75.1,68.0,32.27,East,93,0.0,-999.0,79,-99.99,,,0.00,weatherlink.com 1.10,2013-06-09 13:30:00,
2013-06-09 09:45:00,76.0,69.0,32.27,ESE,108,0.0,-999.0,80,-99.99,,,0.00,weatherlink.com 1.10,2013-06-09 13:45:00,
2013-06-09 10:00:00,76.9,70.0,32.27,NE,34,0.0,-999.0,79,-99.99,,,0.00,weatherlink.com 1.10,2013-06-09 14:00:00,
2013-06-09 10:15:00,77.1,71.0,32.27,East,80,0.0,-999.0,80,-99.99,,,0.00,weatherlink.com 1.10,2013-06-09 14:15:00,
2013-06-09 10:30:00,77.0,71.0,32.27,ESE,116,0.0,-999.0,81,-99.99,,,0.00,weatherlink.com 1.10,2013-06-09 14:30:00,
2013-06-09 10:45:00,77.0,71.0,32.27,ESE,119,0.0,-999.0,81,-99.99,,,0.00,weatherlink.com 1.10,2013-06-09 14:45:00,
2013-06-09 11:00:00,77.3,71.0,32.27,ENE,67,0.0,-999.0,81,-99.99,,,0.00,weatherlink.com 1.10,2013-06-09 15:00:00,
2013-06-09 11:15:00,77.4,71.0,32.27,ENE,67,0.0,-999.0,81,-99.99,,,0.00,weatherlink.com 1.10,2013-06-09 15:15:00,
2013-06-09 11:30:00,77.3,71.0,32.27,ENE,67,0.0,-999.0,81,-99.99,,,0.00,weatherlink.com 1.10,2013-06-09 15:30:00,
2013-06-09 11:45:00,77.7,71.0,32.27,ENE,67,0.0,-999.0,80,-99.99,,,0.00,weatherlink.com 1.10,2013-06-09 15:45:00,
2013-06-09 12:00:00,77.3,71.0,32.27,ENE,74,0.0,-999.0,81,-99.99,,,0.00,weatherlink.com 1.10,2013-06-09 16:00:00,
2013-06-09 12:15:00,76.7,71.0,32.27,ENE,75,0.0,-999.0,82,-99.99,,,0.00,weatherlink.com 1.10,2013-06-09 16:15:00,
2013-06-09 12:30:00,76.8,70.0,32.27,SE,132,0.0,-999.0,80,-99.99,,,0.00,weatherlink.com 1.10,2013-06-09 16:30:00,
2013-06-09 12:45:00,77.5,71.0,32.27,ENE,66,0.0,-999.0,79,-99.99,,,0.00,weatherlink.com 1.10,2013-06-09 16:45:00,
2013-06-09 13:00:00,77.8,70.0,32.27,SE,138,1.0,-999.0,77,-99.99,,,0.00,weatherlink.com 1.10,2013-06-09 17:00:00,
2013-06-09 13:15:00,78.5,71.0,32.27,East,91,0.0,-999.0,77,-99.99,,,0.00,weatherlink.com 1.10,2013-06-09 17:15:00,
2013-06-09 13:30:00,79.0,71.0,32.27,East,94,1.0,-999.0,76,-99.99,,,0.00,weatherlink.com 1.10,2013-06-09 17:30:00,
2013-06-09 13:45:00,79.3,72.0,32.27,East,82,0.0,-999.0,77,-99.99,,,0.00,weatherlink.com 1.10,2013-06-09 17:45:00,
2013-06-09 14:00:00,79.8,73.0,32.27,West,276,0.0,-999.0,79,-99.99,,,0.00,weatherlink.com 1.10,2013-06-09 18:00:00,
2013-06-09 14:15:00,79.7,72.0,32.27,ESE,119,1.0,-999.0,78,-99.99,,,0.00,weatherlink.com 1.10,2013-06-09 18:15:00,
2013-06-09 14:30:00,79.9,73.0,32.27,NNW,331,1.0,-999.0,78,-99.99,,,0.00,weatherlink.com 1.10,2013-06-09 18:30:00,
2013-06-09 14:45:00,80.6,74.0,32.27,SE,129,0.0,-999.0,79,-99.99,,,0.00,weatherlink.com 1.10,2013-06-09 18:45:00,
2013-06-09 15:00:00,80.8,73.0,32.27,SSE,150,0.0,-999.0,77,-99.99,,,0.00,weatherlink.com 1.10,2013-06-09 19:00:00,
2013-06-09 15:15:00,81.1,73.0,32.27,ESE,123,2.0,-999.0,77,-99.99,,,0.00,weatherlink.com 1.10,2013-06-09 19:15:00,
2013-06-09 15:30:00,81.9,74.0,32.27,ESE,115,0.0,-999.0,77,-99.99,,,0.00,weatherlink.com 1.10,2013-06-09 19:30:00,
2013-06-09 15:45:00,81.4,74.0,32.27,SE,138,0.0,-999.0,77,-99.99,,,0.00,weatherlink.com 1.10,2013-06-09 19:45:00,
2013-06-09 16:00:00,81.3,73.0,32.27,ENE,63,0.0,-999.0,77,-99.99,,,0.00,weatherlink.com 1.10,2013-06-09 20:00:00,
2013-06-09 16:15:00,80.7,73.0,32.27,SE,137,0.0,-999.0,78,-99.99,,,0.00,weatherlink.com 1.10,2013-06-09 20:15:00,
2013-06-09 16:30:00,80.2,73.0,32.27,SE,125,0.0,-999.0,79,-99.99,,,0.00,weatherlink.com 1.10,2013-06-09 20:30:00,
2013-06-09 16:45:00,81.1,73.0,32.27,NE,56,0.0,-999.0,77,-99.99,,,0.00,weatherlink.com 1.10,2013-06-09 20:45:00,
2013-06-09 17:00:00,80.6,72.0,32.27,East,80,0.0,-999.0,76,-99.99,,,0.00,weatherlink.com 1.10,2013-06-09 21:00:00,
2013-06-09 17:15:00,80.3,71.0,32.27,SE,132,0.0,-999.0,73,-99.99,,,0.00,weatherlink.com 1.10,2013-06-09 21:15:00,
2013-06-09 17:30:00,80.8,71.0,32.27,SE,138,0.0,-999.0,73,-99.99,,,0.00,weatherlink.com 1.10,2013-06-09 21:30:00,
2013-06-09 17:45:00,80.6,71.0,32.27,ENE,61,0.0,-999.0,73,-99.99,,,0.00,weatherlink.com 1.10,2013-06-09 21:45:00,
2013-06-09 18:01:00,80.2,70.0,32.27,SE,142,2.0,-999.0,71,-99.99,,,0.00,weatherlink.com 1.10,2013-06-09 22:01:00,
2013-06-09 18:16:00,80.0,69.0,32.27,SSE,152,0.0,-999.0,68,-99.99,,,0.00,weatherlink.com 1.10,2013-06-09 22:16:00,
2013-06-09 18:31:00,79.6,68.0,32.27,SE,130,1.0,-999.0,68,-99.99,,,0.00,weatherlink.com 1.10,2013-06-09 22:31:00,
2013-06-09 18:46:00,79.1,67.0,32.27,SSE,152,0.0,-999.0,66,-99.99,,,0.00,weatherlink.com 1.10,2013-06-09 22:46:00,
2013-06-09 19:01:00,78.5,65.0,32.27,ENE,74,0.0,-999.0,64,-99.99,,,0.00,weatherlink.com 1.10,2013-06-09 23:01:00,
2013-06-09 19:16:00,78.0,66.0,32.27,SSE,153,0.0,-999.0,66,-99.99,,,0.00,weatherlink.com 1.10,2013-06-09 23:16:00,
2013-06-09 19:31:00,77.8,67.0,32.27,ESE,113,0.0,-999.0,70,-99.99,,,0.00,weatherlink.com 1.10,2013-06-09 23:31:00,
2013-06-09 19:46:00,77.6,68.0,32.27,SE,140,0.0,-999.0,72,-99.99,,,0.00,weatherlink.com 1.10,2013-06-09 23:46:00,
2013-06-09 20:01:00,77.2,68.0,32.27,ENE,69,0.0,-999.0,73,-99.99,,,0.00,weatherlink.com 1.10,2013-06-10 00:01:00,
2013-06-09 20:16:00,76.8,67.0,32.27,ESE,123,4.0,-999.0,71,-99.99,,,0.00,weatherlink.com 1.10,2013-06-10 00:16:00,
2013-06-09 20:31:00,76.5,66.0,32.27,East,88,0.0,-999.0,71,-99.99,,,0.00,weatherlink.com 1.10,2013-06-10 00:31:00,
2013-06-09 20:46:00,75.8,69.0,32.27,ENE,72,0.0,-999.0,78,-99.99,,,0.02,weatherlink.com 1.10,2013-06-10 00:46:00,
2013-06-09 21:01:00,73.7,69.0,32.27,ENE,72,0.0,-999.0,84,-99.99,,,0.02,weatherlink.com 1.10,2013-06-10 01:01:00,
2013-06-09 21:16:00,72.4,69.0,32.27,ENE,73,0.0,-999.0,88,-99.99,,,0.02,weatherlink.com 1.10,2013-06-10 01:16:00,
2013-06-09 21:31:00,71.5,69.0,32.27,ENE,73,0.0,-999.0,90,-99.99,,,0.02,weatherlink.com 1.10,2013-06-10 01:31:00,
2013-06-09 21:46:00,71.1,69.0,32.27,ESE,111,0.0,-999.0,92,-99.99,,,0.02,weatherlink.com 1.10,2013-06-10 01:46:00,
2013-06-09 22:01:00,70.8,68.0,32.27,ESE,112,0.0,-999.0,92,-99.99,,,0.02,weatherlink.com 1.10,2013-06-10 02:01:00,
2013-06-09 22:16:00,70.7,69.0,32.27,ESE,112,0.0,-999.0,93,-99.99,,,0.02,weatherlink.com 1.10,2013-06-10 02:16:00,
2013-06-09 22:31:00,70.5,68.0,32.27,ESE,112,0.0,-999.0,92,-99.99,,,0.02,weatherlink.com 1.10,2013-06-10 02:31:00,
2013-06-09 22:46:00,70.4,68.0,32.27,ESE,111,0.0,-999.0,93,-99.99,,,0.02,weatherlink.com 1.10,2013-06-10 02:46:00,
2013-06-09 23:01:00,70.5,68.0,32.27,ESE,111,0.0,-999.0,92,-99.99,,,0.02,weatherlink.com 1.10,2013-06-10 03:01:00,
2013-06-09 23:16:00,70.6,69.0,32.27,ESE,112,0.0,-999.0,93,-99.99,,,0.02,weatherlink.com 1.10,2013-06-10 03:16:00,
2013-06-09 23:31:00,71.0,69.0,32.27,SE,128,0.0,-999.0,93,-99.99,,,0.02,weatherlink.com 1.10,2013-06-10 03:31:00,
2013-06-09 23:46:00,71.1,69.0,32.27,SE,128,0.0,-999.0,93,-99.99,,,0.02,weatherlink.com 1.10,2013-06-10 03:46:00,